This demonstration page uses our WeatherBlox Daily Observations layout. Learn more.

Left ArrowRight Arrow

36.19886, -115.1175

Hourly Observations for September 8, 2020

Temp ( °F °C ) Dew Point ( °F °C ) Humidity (%) Winds ( mph kmh ) Pressure ( in mb ) Visibility ( mi km ) Precip ( " mm )
12:53 am 00:53 Clear 89 31.7 29 -1.7 11 11 W 6 9 29.51 999 N/A 0 0
1:53 am 01:53 Clear 86 30 32 0 14 14 WSW 5 7 29.49 999 N/A 0 0
2:53 am 02:53 Clear 90 32.2 31 -0.6 12 12 NNW 12 19 29.48 998 N/A 0 0
3:53 am 03:53 Clear 90 32.2 32 0 13 13 N 12 19 29.47 998 N/A 0 0
4:53 am 04:53 Clear 90 32.2 33 0.6 13 13 NNW 17 28 29.49 999 N/A 0 0
5:53 am 05:53 Clear with Light Rain 88 31.1 34 1.1 15 15 NW 25 41 29.55 1001 N/A 0.001 0.001
6:53 am 06:53 Mostly Cloudy with Light Rain 82 27.8 25 -3.9 12 12 WNW 39 63 29.62 1003 1.5 2.41401 0.001 0.001
7:53 am 07:53 Sunny with Light Rain 81 27.2 24 -4.4 12 12 NW 36 57 29.7 1006 1.5 2.41401 0.001 0.001
8:38 am 08:38 Hazy 80 26.7 22 -5.6 11 11 NW 30 48 29.66 1004 2.5 4.02335 0.001 0.001
8:53 am 08:53 Hazy 80 26.7 22 -5.6 11 11 NW 29 46 29.78 1009 5 8.0467 0.001 0.001
9:53 am 09:53 Hazy 81 27.2 14 -10 8 8 NW 31 50 29.83 1010 6 9.65604 0 0
10:53 am 10:53 Hazy 79 26.1 19 -7.2 10 10 NNW 28 44 29.86 1011 6 9.65604 0 0
11:53 am 11:53 Hazy 80 26.7 19 -7.2 10 10 NNW 25 41 29.84 1011 N/A 0 0
12:53 pm 12:53 Hazy 82 27.8 19 -7.2 9 9 NNW 30 48 29.81 1009 N/A 0 0
1:53 pm 13:53 Hazy 84 28.9 19 -7.2 9 9 NNW 28 44 29.79 1009 10 16.0934 0 0
2:53 pm 14:53 Hazy 84 28.9 19 -7.2 9 9 NNW 33 54 29.76 1008 10 16.0934 0 0
3:53 pm 15:53 Hazy 84 28.9 20 -6.7 9 9 N 24 39 29.77 1008 10 16.0934 0 0
4:53 pm 16:53 Hazy 85 29.4 20 -6.7 9 9 NNW 17 28 29.79 1009 10 16.0934 0 0
5:53 pm 17:53 Hazy 83 28.3 22 -5.6 10 10 NNE 15 24 29.79 1009 10 16.0934 0 0
6:53 pm 18:53 Hazy 80 26.7 21 -6.1 11 11 NE 18 30 29.81 1010 10 16.0934 0 0
7:53 pm 19:53 Hazy 78 25.6 21 -6.1 12 12 NNE 18 30 29.85 1011 10 16.0934 0 0
8:53 pm 20:53 Hazy 77 25 20 -6.7 12 12 NNE 13 20 29.88 1012 10 16.0934 0 0
9:53 pm 21:53 Hazy 71 21.7 22 -5.6 16 16 ENE 21 33 29.92 1013 10 16.0934 0 0
10:53 pm 22:53 Hazy 69 20.6 23 -5 17 17 ENE 16 26 29.95 1014 10 16.0934 0 0
11:53 pm 23:53 Hazy 68 20 23 -5 18 18 NE 13 20 29.96 1015 10 16.0934 0 0

Powered by AerisWeather